Other Public Products
Issued by NWS Grand Forks, ND

Home | Current Version | Previous Version | Text Only | Print | Product List | Glossary Off
Versions: 1 2 3 4 5 6 7 8 9 10 11 12 13 14 15 16 17 18 19 20 21 22 23 24 25 26 27 28 29 30 31 32 33 34 35 36 37 38 39 40 41 42 43 44 45 46 47 48 49 50

000
FPUS83 KFGF 041231
OPUFGF
PRAIRIE TO PINES WEATHER ROUNDUP
NATIONAL WEATHER SERVICE EASTERN NORTH DAKOTA/GRAND FORKS ND
600 AM CST SUN DEC 04 2016

 **SATELLITE DATA USED TO AUGMENT SKY COVER AT AUTOMATED STATIONS**
 *****  WEATHER ACROSS EASTERN NORTH DAKOTA  *****

CITY           SKY/WX    TMP DP  RH WIND       PRES   REMARKS
GRAND FORKS    NOT AVBL
GRAND FORKS AF CLOUDY    32  32 100 S12       29.71F WCI  23
GRAND CITY NWS   N/A     32 N/A N/A S13         N/A  WCI  22
BUXTON           N/A     46  46  99 SE13        N/A
DEVILS LAKE    CLOUDY    32  30  93 W23       29.67F WCI  19
6HR MIN TEMP:  31; 6HR MAX TEMP:  33; 6HR PCP: TRACE;

FARGO          LGT SNOW  34  32  92 S14G21    29.76F FOG     WCI  25
6HR MIN TEMP:  34; 6HR MAX TEMP:  35; 6HR PCP:  0.02;

WAHPETON ARPT  CLOUDY    32  32 100 S14       29.79F WCI  22
$$

 *****  WEATHER ACROSS CENTRAL AND WESTERN NORTH DAKOTA  *****

CITY           SKY/WX    TMP DP  RH WIND       PRES   REMARKS
JAMESTOWN      CLOUDY    31  29  92 SW5       29.71S
6HR MIN TEMP:  31; 6HR MAX TEMP:  32; 6HR PCP: TRACE;

BISMARCK       CLOUDY    33  29  85 W14       29.76S WCI  23
6HR MIN TEMP:  30; 6HR MAX TEMP:  35;

MINOT          CLOUDY    28  24  85 W18       29.70F WCI  15
6HR MIN TEMP:  28; 6HR MAX TEMP:  35;

MINOT AFB      CLOUDY    25  23  93 NW17      29.69S WCI  11
6HR MIN TEMP:  26; 6HR MAX TEMP:  33; 6HR PCP: TRACE;

GARRISON         N/A     30  27  88 NW13      29.72S WCI  20
6HR MIN TEMP:  30; 6HR MAX TEMP:  34;

WILLISTON      CLEAR     24  21  88 SW7       29.76S WCI  16
6HR MIN TEMP:  24; 6HR MAX TEMP:  34; 6HR PCP:  0.02;

DICKINSON      CLEAR     23  18  81 W15       29.76S WCI  10
6HR MIN TEMP:  22; 6HR MAX TEMP:  30;

HETTINGER      CLEAR     21  16  81 W10       29.81F WCI  10
6HR MIN TEMP:  18; 6HR MAX TEMP:  29;

$$

 *****  OTHER OBSERVATIONS NORTHEAST NORTH DAKOTA  *****

CITY           SKY/WX    TMP DP  RH WIND       PRES   REMARKS
WALHALLA         N/A     32  32 100 SE10      29.67F WCI  24
LANGDON        MIX PCPN  32  32 100 S12       29.64F WCI  23
CAVALIER         N/A     32  32 100 S13       29.68F FOG     WCI  22
GRAFTON        LGT SNOW  32  32 100 S14       29.72F WCI  22
CANDO          CLOUDY    27  27 100 W16G23    29.69R WCI  14
FORT TOTTEN      N/A     31  31 100 W5        29.95S
ROLLA          FLURRIES  27  27 100 W10       29.64S WCI  17
RUGBY            N/A     25  25 100 W15       29.68S WCI  12
 ***** THE ABOVE OBSERVATIONS ARE NON NWS ARE NOT QUALITY
        CONTROLLED AND MAY MIS-REPORT RAIN FOR SNOW...
$$

 *****  OTHER OBSERVATIONS SOUTHEAST NORTH DAKOTA *****

CITY           SKY/WX    TMP DP  RH WIND       PRES   REMARKS
COOPERSTOWN    CLOUDY    30  30 100 SW9       29.70F WCI  22
VALLEY CITY    CLOUDY    32  32 100 SW8       29.73F WCI  25
OAKES          NOT AVBL
GWINNER          N/A     32  32 100 SW13      29.75F WCI  22
SHEYENNE NWR     N/A     33  32  94 S7        29.95
BUFFALO          N/A     32  31  96 E9          N/A  WCI  24
WYNDMERE         N/A     34  34 100 S9          N/A
 ***** THE ABOVE OBSERVATIONS ARE NON NWS ARE NOT QUALITY
       CONTROLLED AND MAY MIS-REPORT RAIN FOR SNOW...
$$

  *****  WEATHER ACROSS NORTHERN MINNESOTA  *****

CITY           SKY/WX    TMP DP  RH WIND       PRES   REMARKS
FLAG ISLAND    CLOUDY    28  27  93 SE18      29.81F WCI  16
WARROAD        CLOUDY    30  27  86 SE10      29.80F WCI  21
ROSEAU         MOCLDY    32  28  86 SE13      29.78F WCI  22
HALLOCK        LGT SNOW  34  32  93 SE14      29.72F WCI  24
THF RVR FALLS  CLOUDY    33  30  88 SE16      29.76F WCI  23
6HR MIN TEMP:  30; 6HR MAX TEMP:  33;

HALSTAD          N/A     33  32  96 S16         N/A  WCI  22
FOSSTON        CLOUDY    30  28  93 SE12      29.78F FOG     WCI  21
BAUDETTE       LGT SNOW  27  25  92 SE12      29.84F FOG     WCI  17
6HR MIN TEMP:  24; 6HR MAX TEMP:  28; 6HR PCP: TRACE;

WASKISH        CLOUDY    28  27  93 SE8       29.84F WCI  20
CROOKSTON      MIX PCPN  34  32  93 S16       29.75F WCI  23
$$
  *****  WEATHER ACROSS CENTRAL AND WEST MINNESOTA  *****

CITY           SKY/WX    TMP DP  RH WIND       PRES   REMARKS
BEMIDJI        CLOUDY    29  28  96 SE13      29.81F FOG     WCI  19
PARK RAPIDS    CLOUDY    31  28  89 SE15      29.82F FOG     WCI  20
6HR MIN TEMP:  29; 6HR MAX TEMP:  31; 6HR PCP: TRACE;

WADENA         CLOUDY    32  30  93 S13       29.82F FOG     WCI  22
DETROIT LAKES  CLOUDY    34  32  93 S14       29.78F WCI  24
MOORHEAD       MIX PCPN  34  30  86 S17       29.77F WCI  23
FERGUS FALLS   MIX PCPN  34  34 100 S13       29.84F WCI  25
ELBOW LAKE     CLOUDY    32  32 100 S13       29.81F WCI  22
MORRIS MN      CLOUDY    34  32  93 S12G17    29.82S FOG
STAPLES        CLOUDY    30  28  93 SE7       29.84F FOG     WCI  23
WHEATON        CLOUDY   N/A N/A N/A SE10      29.81F
$$
  *****  WEATHER ELSEWHERE ACROSS MINNESOTA  *****

CITY           SKY/WX    TMP DP  RH WIND       PRES   REMARKS
DULUTH         LGT SNOW  27  26  96 SE13      29.96F FOG     WCI  16
6HR MIN TEMP:  26; 6HR MAX TEMP:  28; 6HR PCP:  0.04;

INTRNTL FALLS  CLOUDY    27  24  89 SE7       29.89F FOG     WCI  19
6HR MIN TEMP:  22; 6HR MAX TEMP:  27; 6HR PCP:  0.04;

ELY            LGT SNOW  27  25  93 SE7       29.95F WCI  19
CLOQUET        LGT SNOW  27  25  93 SE7       29.95F WCI  19
BRAINERD       CLOUDY    30  28  92 SE10      29.88F WCI  21
6HR MIN TEMP:  27; 6HR MAX TEMP:  30; 6HR PCP:  0.02;

HIBBING        LGT SNOW  25  24  96 SE10      29.92F FOG     WCI  15
6HR MIN TEMP:  25; 6HR MAX TEMP:  25; 6HR PCP:  0.02;

ALEXANDRIA     CLOUDY    33  33 100 S12       29.84F WCI  24
6HR MIN TEMP:  33; 6HR MAX TEMP:  33; 6HR PCP: TRACE;

SAINT CLOUD    LGT SNOW  32  31  96 SE10      29.91F FOG     WCI  24
6HR MIN TEMP:  30; 6HR MAX TEMP:  32; 6HR PCP:  0.06;

MINNEAPOLIS    LGT SNOW  32  30  92 SE14      29.96F FOG     WCI  22
6HR MIN TEMP:  31; 6HR MAX TEMP:  32; 6HR PCP:  0.10;

$$

  *****  WEATHER ACROSS SOUTH DAKOTA  *****

CITY           SKY/WX    TMP DP  RH WIND       PRES   REMARKS
SIOUX FALLS    CLOUDY    33  32  96 SW10      29.88S WCI  25
6HR MIN TEMP:  33; 6HR MAX TEMP:  35;

BROOKINGS      MOCLDY    30  28  93 S12       29.83F WCI  21
WATERTOWN      CLOUDY    31  29  92 S13       29.79F WCI  21
6HR MIN TEMP:  31; 6HR MAX TEMP:  32;

HURON          CLEAR     27  24  89 SW8       29.84F WCI  19
6HR MIN TEMP:  27; 6HR MAX TEMP:  32;

SISSETON         N/A     34  30  85 S9        29.78F
ABERDEEN       CLOUDY    31  28  89 SW6       29.80S
6HR MIN TEMP:  28; 6HR MAX TEMP:  32; 6HR PCP: TRACE;

MITCHELL       CLEAR     31  25  78 W10       29.88F WCI  22
PIERRE         MOCLDY    31  24  75 W12       29.86S WCI  22
6HR MIN TEMP:  25; 6HR MAX TEMP:  32;

MOBRIDGE       CLEAR     27  22  81 W7        29.79S WCI  19
RAPID CITY     CLEAR     25  18  74 NW10      29.89S WCI  15
6HR MIN TEMP:  20; 6HR MAX TEMP:  33;

$$

  *****  SOME WEATHER IN NEARBY STATES *****

CITY           SKY/WX    TMP DP  RH WIND       PRES   REMARKS
GLASGOW MT     CLEAR     21  18  88 S10       29.77F WCI  10
6HR MIN TEMP:  21; 6HR MAX TEMP:  29;

GREAT FALLS MT CLOUDY    32  20  61 SW20      29.75F WCI  20
6HR MIN TEMP:  30; 6HR MAX TEMP:  34;

CHEYENNE WY    CLEAR     26   8  46 W25G32    29.95F WCI  11
6HR MIN TEMP:  21; 6HR MAX TEMP:  26;

SCOTTSBLUFF NE CLEAR     17  10  74 NW6       29.99F WCI   9
6HR MIN TEMP:  15; 6HR MAX TEMP:  27;

OMAHA NE       CLOUDY    34  30  85 CALM      29.98F
6HR MIN TEMP:  33; 6HR MAX TEMP:  35; 6HR PCP:  0.02;

DES MOINES IA  LGT SNOW  34  33  96 S8        30.00F FOG
6HR MIN TEMP:  34; 6HR MAX TEMP:  37; 6HR PCP:  0.28;

DAVENPORT IA   LGT SNOW  32  30  92 SE12      30.11F FOG     WCI  23
6HR MIN TEMP:  32; 6HR MAX TEMP:  34; 6HR PCP: TRACE;

CHICAGO IL     CLOUDY    31  26  82 CALM      30.18S
6HR MIN TEMP:  29; 6HR MAX TEMP:  32;

EAU CLAIRE WI  LGT SNOW  30  28  92 E7        30.03F FOG     WCI  23
6HR MIN TEMP:  30; 6HR MAX TEMP:  31; 6HR PCP:  0.02;

LA CROSSE WI   LGT SNOW  34  31  88 SE9       30.06F FOG
6HR MIN TEMP:  33; 6HR MAX TEMP:  34; 6HR PCP:  0.08;

$$

  *****  SOME NATIONAL WEATHER *****

CITY           SKY/WX    TMP DP  RH WIND       PRES   REMARKS
LA GUARDIA NY  PTCLDY    41  25  53 NW13G22   30.22R
6HR MIN TEMP:  41; 6HR MAX TEMP:  44;

RALEIGH NC     CLOUDY    42  30  62 E7        30.29R               C1F1C2F2C3F3C4F4C5F5C6F6C7F7C8F8C9F9CaFaCbFbCcFcCdFdCe!



USA.gov is the U.S. government's official web portal to all federal, state and local government web resources and services.